TimeCST,TemperatureF,Dew PointF,Humidity,Sea Level PressureIn,VisibilityMPH,Wind Direction,Wind SpeedMPH,Gust SpeedMPH,PrecipitationIn,Events,Conditions,WindDirDegrees,DateUTC
12:15 AM,35.8,31.1,83,30.13,10.0,South,5.8,-,N/A,,Overcast,170,2012-11-15 06:15:00
12:34 AM,35.1,30.6,84,30.13,10.0,South,5.8,-,N/A,,Overcast,170,2012-11-15 06:34:00
12:54 AM,34.5,30.4,85,30.12,10.0,South,5.8,-,N/A,,Mostly Cloudy,170,2012-11-15 06:54:00
1:15 AM,35.2,31.1,85,30.12,10.0,SSE,5.8,-,N/A,,Scattered Clouds,160,2012-11-15 07:15:00
1:34 AM,36.1,31.5,83,30.12,10.0,SSE,5.8,-,N/A,,Scattered Clouds,160,2012-11-15 07:34:00
1:54 AM,36.1,31.8,84,30.12,10.0,SSE,5.8,-,N/A,,Mostly Cloudy,160,2012-11-15 07:54:00
2:15 AM,36.1,31.8,84,30.12,10.0,SSE,4.6,-,N/A,,Overcast,160,2012-11-15 08:15:00
2:34 AM,36.5,32.0,84,30.12,10.0,SE,3.5,-,N/A,,Overcast,140,2012-11-15 08:34:00
2:54 AM,36.9,32.0,83,30.11,10.0,SE,4.6,-,N/A,,Overcast,140,2012-11-15 08:54:00
3:15 AM,37.4,32.0,81,30.12,10.0,Calm,Calm,-,N/A,,Overcast,0,2012-11-15 09:15:00
3:34 AM,37.4,32.0,81,30.11,10.0,Calm,Calm,-,N/A,,Overcast,0,2012-11-15 09:34:00
3:54 AM,36.1,31.8,84,30.11,10.0,Calm,Calm,-,N/A,,Overcast,0,2012-11-15 09:54:00
4:15 AM,35.6,31.5,85,30.11,10.0,Calm,Calm,-,N/A,,Mostly Cloudy,0,2012-11-15 10:15:00
4:34 AM,35.6,31.5,85,30.11,10.0,Calm,Calm,-,N/A,,Overcast,0,2012-11-15 10:34:00
4:54 AM,35.1,31.3,86,30.12,10.0,Calm,Calm,-,N/A,,Overcast,0,2012-11-15 10:54:00
5:14 AM,34.9,31.3,87,30.12,10.0,SSE,5.8,-,N/A,,Overcast,160,2012-11-15 11:14:00
5:34 AM,36.0,32.0,86,30.12,10.0,South,3.5,-,N/A,,Overcast,170,2012-11-15 11:34:00
6:14 AM,34.9,31.1,86,30.12,10.0,South,3.5,-,N/A,,Mostly Cloudy,180,2012-11-15 12:14:00
6:35 AM,33.8,30.6,88,30.13,10.0,SSE,4.6,-,N/A,,Scattered Clouds,160,2012-11-15 12:35:00
6:54 AM,32.9,29.8,88,30.13,10.0,South,3.5,-,N/A,,Scattered Clouds,170,2012-11-15 12:54:00
7:14 AM,33.1,30.4,90,30.14,10.0,South,3.5,-,N/A,,Scattered Clouds,190,2012-11-15 13:14:00
7:35 AM,32.9,30.0,89,30.15,10.0,Calm,Calm,-,N/A,,Clear,0,2012-11-15 13:35:00
7:54 AM,31.8,29.3,90,30.16,10.0,Calm,Calm,-,N/A,,Clear,0,2012-11-15 13:54:00
8:14 AM,33.1,31.1,92,30.17,10.0,Calm,Calm,-,N/A,,Clear,0,2012-11-15 14:14:00
8:35 AM,37.0,32.4,83,30.18,10.0,Calm,Calm,-,N/A,,Clear,0,2012-11-15 14:35:00
8:54 AM,39.4,32.0,75,30.18,10.0,Calm,Calm,-,N/A,,Scattered Clouds,0,2012-11-15 14:54:00
9:14 AM,40.5,32.0,72,30.18,10.0,SW,4.6,-,N/A,,Clear,230,2012-11-15 15:14:00
9:35 AM,42.3,32.5,68,30.20,10.0,West,5.8,-,N/A,,Clear,270,2012-11-15 15:35:00
9:54 AM,43.0,33.1,68,30.20,10.0,WNW,8.1,-,N/A,,Clear,290,2012-11-15 15:54:00
10:14 AM,43.7,32.7,65,30.21,10.0,NW,6.9,-,N/A,,Clear,310,2012-11-15 16:14:00
10:34 AM,43.7,32.4,64,30.21,10.0,Calm,Calm,-,N/A,,Clear,0,2012-11-15 16:34:00
10:55 AM,44.8,32.2,61,30.22,10.0,NNW,5.8,-,N/A,,Clear,330,2012-11-15 16:55:00
11:14 AM,45.5,32.2,60,30.22,10.0,NNW,3.5,-,N/A,,Clear,330,2012-11-15 17:14:00
11:34 AM,46.4,32.4,58,30.22,10.0,NW,5.8,-,N/A,,Clear,310,2012-11-15 17:34:00
11:55 AM,47.5,32.0,55,30.23,10.0,NW,6.9,-,N/A,,Clear,310,2012-11-15 17:55:00
12:14 PM,47.7,32.0,55,30.23,10.0,NW,8.1,-,N/A,,Clear,320,2012-11-15 18:14:00
12:34 PM,48.9,31.8,52,30.23,10.0,NW,5.8,-,N/A,,Scattered Clouds,320,2012-11-15 18:34:00
12:55 PM,49.3,31.3,50,30.23,10.0,NNW,9.2,-,N/A,,Scattered Clouds,340,2012-11-15 18:55:00
1:14 PM,49.3,31.5,50,30.24,10.0,NW,8.1,-,N/A,,Scattered Clouds,310,2012-11-15 19:14:00
1:34 PM,48.7,31.6,52,30.24,10.0,NW,8.1,-,N/A,,Clear,310,2012-11-15 19:34:00
1:55 PM,48.4,30.4,50,30.24,10.0,NW,6.9,-,N/A,,Scattered Clouds,310,2012-11-15 19:55:00
2:14 PM,48.2,28.0,46,30.25,10.0,NNW,8.1,-,N/A,,Scattered Clouds,330,2012-11-15 20:14:00
2:34 PM,47.7,26.8,44,30.26,10.0,WNW,9.2,-,N/A,,Scattered Clouds,300,2012-11-15 20:34:00
2:55 PM,46.4,26.2,45,30.27,10.0,NW,9.2,16.1,N/A,,Scattered Clouds,310,2012-11-15 20:55:00
3:14 PM,45.5,23.7,42,30.28,10.0,WNW,12.7,17.3,N/A,,Scattered Clouds,300,2012-11-15 21:14:00
3:34 PM,43.9,21.4,41,30.30,10.0,WNW,10.4,-,N/A,,Scattered Clouds,300,2012-11-15 21:34:00
3:55 PM,42.1,19.2,40,30.31,10.0,WNW,11.5,-,N/A,,Scattered Clouds,300,2012-11-15 21:55:00
4:14 PM,40.3,19.2,43,30.32,10.0,NW,5.8,-,N/A,,Scattered Clouds,310,2012-11-15 22:14:00
4:34 PM,39.7,14.2,35,30.34,10.0,NNW,6.9,-,N/A,,Scattered Clouds,330,2012-11-15 22:34:00
4:54 PM,37.9,12.0,35,30.34,10.0,NNW,6.9,-,N/A,,Scattered Clouds,340,2012-11-15 22:54:00
5:14 PM,36.3,10.9,35,30.35,10.0,NNW,5.8,-,N/A,,Scattered Clouds,330,2012-11-15 23:14:00
5:35 PM,34.9,10.8,37,30.36,10.0,NNW,3.5,-,N/A,,Scattered Clouds,330,2012-11-15 23:35:00
5:54 PM,33.3,11.7,41,30.37,10.0,NW,4.6,-,N/A,,Scattered Clouds,320,2012-11-15 23:54:00
6:14 PM,33.3,12.4,42,30.38,10.0,NNW,4.6,-,N/A,,Scattered Clouds,330,2012-11-16 00:14:00
6:35 PM,32.9,9.1,37,30.38,10.0,NNW,5.8,-,N/A,,Scattered Clouds,340,2012-11-16 00:35:00
6:54 PM,32.2,7.7,36,30.39,10.0,NNW,5.8,-,N/A,,Scattered Clouds,340,2012-11-16 00:54:00
7:14 PM,32.0,7.5,36,30.39,10.0,NNW,5.8,-,N/A,,Scattered Clouds,340,2012-11-16 01:14:00
7:35 PM,31.3,6.8,36,30.40,10.0,NNW,4.6,-,N/A,,Clear,340,2012-11-16 01:35:00
7:54 PM,30.7,7.2,37,30.41,10.0,NNW,4.6,-,N/A,,Clear,330,2012-11-16 01:54:00
8:14 PM,30.0,7.5,39,30.42,10.0,NNW,4.6,-,N/A,,Scattered Clouds,340,2012-11-16 02:14:00
8:35 PM,29.3,7.7,40,30.42,10.0,NNW,3.5,-,N/A,,Clear,340,2012-11-16 02:35:00
8:54 PM,27.1,9.1,47,30.43,10.0,NNW,3.5,-,N/A,,Clear,340,2012-11-16 02:54:00
9:14 PM,26.6,8.8,47,30.43,10.0,Calm,Calm,-,N/A,,Clear,0,2012-11-16 03:14:00
9:35 PM,24.1,9.0,53,30.44,10.0,Calm,Calm,-,N/A,,Clear,0,2012-11-16 03:35:00
9:54 PM,23.0,10.4,59,30.45,10.0,Calm,Calm,-,N/A,,Clear,0,2012-11-16 03:54:00
10:14 PM,23.2,10.8,59,30.45,10.0,Calm,Calm,-,N/A,,Clear,0,2012-11-16 04:14:00
10:35 PM,25.2,10.9,55,30.45,10.0,NNW,4.6,-,N/A,,Clear,340,2012-11-16 04:35:00
10:54 PM,24.8,11.5,57,30.46,10.0,North,4.6,-,N/A,,Clear,350,2012-11-16 04:54:00
11:14 PM,24.6,11.8,58,30.46,10.0,North,3.5,-,N/A,,Clear,350,2012-11-16 05:14:00
11:35 PM,21.2,11.8,67,30.46,10.0,Calm,Calm,-,N/A,,Clear,0,2012-11-16 05:35:00
11:54 PM,22.5,12.4,65,30.46,10.0,Calm,Calm,-,N/A,,Clear,0,2012-11-16 05:54:00